| time (UTC) | temp C | wind direction | speed KPH | gust KPH | rain 1hr cm | rain 24hr cm | rain mn cm | humidity % | barometer mb |
| 20260508100803 | 10 | 251 | 4.8 | 12.9 | 0.03 | 0.30 | 0.13 | 96 | 1007.1 |
| 20260508100103 | 10 | 214 | 3.2 | 14.5 | 0.03 | 0.30 | 0.13 | 96 | 1007.0 |
| 20260508095403 | 10 | 229 | 8.0 | 14.5 | 0.03 | 0.30 | 0.13 | 96 | 1007.0 |
| 20260508094703 | 11 | 148 | 1.6 | 6.4 | 0.03 | 0.30 | 0.13 | 98 | 1006.8 |
| 20260508094003 | 11 | 96 | 0.0 | 6.4 | 0.03 | 0.30 | 0.13 | 98 | 1006.3 |
| 20260508093303 | 11 | 99 | 0.0 | 8.0 | 0.00 | 0.28 | 0.10 | 98 | 1006.3 |
| 20260508092604 | 10 | 131 | 1.6 | 6.4 | 0.00 | 0.28 | 0.10 | 97 | 1006.3 |
| 20260508091903 | 11 | 114 | 3.2 | 4.8 | 0.00 | 0.28 | 0.10 | 98 | 1006.1 |
| 20260508091203 | 11 | 92 | 0.0 | 4.8 | 0.00 | 0.28 | 0.10 | 98 | 1006.1 |
| 20260508090503 | 11 | 90 | 3.2 | 6.4 | 0.00 | 0.28 | 0.10 | 99 | 1006.1 |
| 20260508085803 | 11 | 76 | 0.0 | 3.2 | 0.00 | 0.28 | 0.10 | 99 | 1006.1 |
| 20260508085103 | 11 | 118 | 1.6 | 3.2 | 0.03 | 0.28 | 0.10 | 99 | 1006.0 |
| 20260508084404 | 10 | 216 | 0.0 | 3.2 | 0.03 | 0.28 | 0.10 | 99 | 1006.1 |
| 20260508083703 | 10 | 211 | 0.0 | 3.2 | 0.03 | 0.28 | 0.10 | 99 | 1006.2 |
| 20260508083003 | 10 | 147 | 0.0 | 4.8 | 0.05 | 0.28 | 0.10 | 98 | 1006.2 |
| 20260508082306 | 10 | 46 | 0.0 | 3.2 | 0.05 | 0.28 | 0.10 | 98 | 1006.2 |
| 20260508080903 | 10 | 321 | 0.0 | 3.2 | 0.05 | 0.28 | 0.10 | 98 | 1006.3 |
| 20260508080203 | 10 | 325 | 0.0 | 3.2 | 0.05 | 0.28 | 0.10 | 97 | 1006.2 |
| 20260508075503 | 10 | 258 | 0.0 | 3.2 | 0.05 | 0.28 | 0.10 | 96 | 1006.4 |
| 20260508074803 | 10 | 246 | 0.0 | 8.0 | 0.03 | 0.23 | 0.05 | 96 | 1006.4 |
| 20260508074103 | 10 | 250 | 3.2 | 8.0 | 0.03 | 0.23 | 0.05 | 94 | 1006.7 |
| 20260508072703 | 10 | 97 | 1.6 | 12.9 | 0.00 | 0.20 | 0.03 | 90 | 1006.7 |
| 20260508072003 | 10 | 56 | 3.2 | 12.9 | 0.00 | 0.20 | 0.03 | 89 | 1006.4 |
| 20260508071304 | 10 | 92 | 6.4 | 16.1 | 0.00 | 0.20 | 0.03 | 88 | 1006.4 |
| 20260508070603 | 10 | 89 | 3.2 | 17.7 | 0.00 | 0.20 | 0.03 | 87 | 1006.2 |
| 20260508065903 | 10 | 94 | 6.4 | 14.5 | 0.00 | 0.20 | 0.03 | 88 | 1006.3 |
| 20260508065203 | 10 | 137 | 3.2 | 8.0 | 0.00 | 0.20 | 0.03 | 88 | 1006.2 |
| 20260508064503 | 10 | 149 | 3.2 | 8.0 | 0.00 | 0.20 | 0.03 | 88 | 1006.0 |
| 20260508063803 | 10 | 34 | 3.2 | 9.7 | 0.00 | 0.20 | 0.03 | 88 | 1005.7 |
| 20260508063103 | 10 | 16 | 6.4 | 9.7 | 0.00 | 0.20 | 0.03 | 88 | 1005.7 |
| 20260508062403 | 10 | 18 | 6.4 | 12.9 | 0.00 | 0.20 | 0.03 | 89 | 1005.6 |
| 20260508061703 | 10 | 27 | 6.4 | 12.9 | 0.00 | 0.20 | 0.03 | 89 | 1005.5 |
| 20260508061003 | 10 | 83 | 4.8 | 12.9 | 0.00 | 0.20 | 0.03 | 90 | 1005.3 |
| 20260508055603 | 10 | 59 | 3.2 | 12.9 | 0.00 | 0.20 | 0.03 | 91 | 1005.1 |
| 20260508053504 | 10 | 75 | 4.8 | 12.9 | 0.00 | 0.20 | 0.03 | 99 | 1005.2 |
| 20260508052803 | 10 | 101 | 3.2 | 9.7 | 0.00 | 0.20 | 0.03 | 99 | 1005.2 |
| 20260508051403 | 9 | 110 | 3.2 | 11.3 | 0.00 | 0.20 | 0.03 | 99 | 1004.9 |
| 20260508050703 | 9 | 106 | 3.2 | 11.3 | 0.00 | 0.20 | 0.03 | 99 | 1005.0 |
| 20260508050003 | 9 | 107 | 3.2 | 8.0 | 0.00 | 0.20 | 0.03 | 99 | 1005.0 |
| 20260508045306 | 9 | 102 | 3.2 | 6.4 | 0.00 | 0.20 | 0.03 | 99 | 1005.1 |
| 20260508044603 | 9 | 93 | 3.2 | 6.4 | 0.00 | 0.20 | 0.03 | 99 | 1005.0 |
| 20260508043203 | 9 | 90 | 3.2 | 4.8 | 0.00 | 0.20 | 0.03 | 99 | 1005.1 |
| 20260508042504 | 9 | 101 | 1.6 | 6.4 | 0.00 | 0.20 | 0.03 | 99 | 1005.0 |
| 20260508041803 | 9 | 96 | 3.2 | 8.0 | 0.00 | 0.20 | 0.03 | 99 | 1004.9 |
| 20260508041103 | 9 | 74 | 3.2 | 8.0 | 0.00 | 0.20 | 0.03 | 99 | 1004.9 |
| 20260508035003 | 9 | 111 | 0.0 | 3.2 | 0.00 | 0.20 | 0.03 | 99 | 1005.1 |
| 20260508034303 | 10 | 119 | 0.0 | 4.8 | 0.00 | 0.20 | 0.03 | 99 | 1005.1 |
| 20260508033603 | 10 | 50 | 0.0 | 8.0 | 0.00 | 0.20 | 0.03 | 99 | 1005.2 |
| 20260508032903 | 10 | 47 | 1.6 | 6.4 | 0.00 | 0.20 | 0.03 | 99 | 1005.2 |
| 20260508032202 | 10 | 13 | 3.2 | 6.4 | 0.00 | 0.20 | 0.03 | 99 | 1005.2 |
| 20260508031504 | 10 | 13 | 3.2 | 6.4 | 0.00 | 0.20 | 0.03 | 99 | 1005.4 |
| 20260508030804 | 10 | 78 | 1.6 | 11.3 | 0.00 | 0.20 | 0.03 | 99 | 1005.5 |
| 20260508025403 | 10 | 79 | 3.2 | 8.0 | 0.00 | 0.20 | 0.03 | 99 | 1005.3 |
| 20260508024703 | 10 | 71 | 3.2 | 8.0 | 0.00 | 0.20 | 0.03 | 99 | 1005.4 |
| 20260508024003 | 10 | 98 | 1.6 | 4.8 | 0.00 | 0.20 | 0.03 | 99 | 1005.4 |
| 20260508023302 | 10 | 47 | 3.2 | 11.3 | 0.00 | 0.20 | 0.03 | 99 | 1005.6 |
| 20260508022602 | 10 | 56 | 4.8 | 14.5 | 0.00 | 0.20 | 0.03 | 99 | 1005.7 |
| 20260508021904 | 10 | 71 | 4.8 | 14.5 | 0.00 | 0.20 | 0.03 | 99 | 1005.8 |
| 20260508020503 | 9 | 50 | 3.2 | 6.4 | 0.03 | 0.20 | 0.03 | 99 | 1006.1 |
| 20260508015802 | 9 | 61 | 3.2 | 4.8 | 0.03 | 0.20 | 0.03 | 99 | 1006.2 |
| 20260508015102 | 9 | 85 | 1.6 | 3.2 | 0.03 | 0.20 | 0.03 | 99 | 1006.2 |
| 20260508014402 | 9 | 0 | 0.0 | 0.0 | 0.03 | 0.20 | 0.03 | 99 | 1006.2 |
| 20260508013702 | 9 | 0 | 0.0 | 0.0 | 0.03 | 0.20 | 0.03 | 99 | 1006.3 |
| 20260508013002 | 9 | 124 | 0.0 | 3.2 | 0.03 | 0.20 | 0.03 | 99 | 1006.4 |
| 20260508012307 | 9 | 127 | 1.6 | 4.8 | 0.03 | 0.20 | 0.03 | 99 | 1006.6 |
| 20260508011603 | 9 | 135 | 3.2 | 4.8 | 0.03 | 0.20 | 0.03 | 99 | 1006.6 |
| 20260508010902 | 9 | 103 | 1.6 | 4.8 | 0.00 | 0.18 | 0.00 | 99 | 1006.7 |
| 20260508010203 | 9 | 58 | 0.0 | 4.8 | 0.00 | 0.18 | 0.00 | 99 | 1006.6 |
| 20260508005502 | 9 | 347 | 1.6 | 6.4 | 0.00 | 0.18 | 0.00 | 99 | 1007.0 |
| 20260508004802 | 9 | 275 | 1.6 | 8.0 | 0.00 | 0.18 | 0.00 | 99 | 1007.4 |
| 20260508003403 | 9 | 245 | 3.2 | 6.4 | 0.00 | 0.18 | 0.00 | 99 | 1007.4 |
| 20260508002702 | 9 | 10 | 0.0 | 4.8 | 0.00 | 0.18 | 0.00 | 99 | 1007.4 |
| 20260508002002 | 9 | 316 | 1.6 | 4.8 | 0.00 | 0.18 | 0.00 | 99 | 1007.2 |
| 20260508001302 | 9 | 309 | 0.0 | 4.8 | 0.00 | 0.18 | 0.00 | 99 | 1007.3 |
| 20260508000602 | 9 | 194 | 0.0 | 3.2 | 0.00 | 0.18 | 0.00 | 99 | 1007.2 |
| 20260507235902 | 9 | 146 | 0.0 | 6.4 | 0.00 | 0.18 | 0.00 | 99 | 1007.1 |
| 20260507235202 | 9 | 131 | 3.2 | 6.4 | 0.00 | 0.18 | 0.00 | 99 | 1007.1 |
| 20260507234502 | 9 | 92 | 0.0 | 4.8 | 0.00 | 0.18 | 0.00 | 99 | 1007.1 |
| 20260507233802 | 9 | 101 | 1.6 | 6.4 | 0.00 | 0.18 | 0.00 | 99 | 1007.0 |
| 20260507233102 | 10 | 101 | 1.6 | 6.4 | 0.00 | 0.18 | 0.00 | 99 | 1007.2 |
| 20260507232402 | 10 | 66 | 0.0 | 6.4 | 0.00 | 0.18 | 0.00 | 99 | 1007.2 |
| 20260507231702 | 10 | 74 | 1.6 | 6.4 | 0.00 | 0.18 | 0.00 | 99 | 1007.3 |
| 20260507230302 | 10 | 122 | 1.6 | 4.8 | 0.00 | 0.18 | 0.00 | 99 | 1007.5 |
| 20260507225602 | 10 | 105 | 1.6 | 3.2 | 0.00 | 0.18 | 0.00 | 99 | 1007.5 |
| 20260507224902 | 10 | 63 | 0.0 | 3.2 | 0.00 | 0.18 | 0.00 | 99 | 1007.6 |
| 20260507224202 | 10 | 72 | 0.0 | 4.8 | 0.00 | 0.18 | 0.00 | 99 | 1007.6 |
| 20260507223502 | 10 | 100 | 0.0 | 4.8 | 0.00 | 0.18 | 0.00 | 99 | 1007.6 |
| 20260507222802 | 10 | 121 | 1.6 | 4.8 | 0.00 | 0.18 | 0.00 | 98 | 1007.9 |
| 20260507222102 | 10 | 97 | 1.6 | 4.8 | 0.00 | 0.18 | 0.00 | 97 | 1007.7 |
| 20260507220002 | 10 | 137 | 1.6 | 4.8 | 0.00 | 0.18 | 0.18 | 95 | 1008.0 |
| 20260507215306 | 10 | 151 | 0.0 | 3.2 | 0.00 | 0.18 | 0.18 | 94 | 1007.9 |
| 20260507214603 | 10 | 139 | 0.0 | 3.2 | 0.00 | 0.18 | 0.18 | 94 | 1007.9 |
| 20260507213902 | 10 | 168 | 0.0 | 3.2 | 0.00 | 0.18 | 0.18 | 93 | 1007.8 |
| 20260507213202 | 10 | 165 | 0.0 | 1.6 | 0.00 | 0.18 | 0.18 | 93 | 1007.9 |
| 20260507212503 | 10 | 94 | 0.0 | 1.6 | 0.00 | 0.18 | 0.18 | 92 | 1007.8 |
| 20260507211802 | 10 | 138 | 0.0 | 3.2 | 0.00 | 0.18 | 0.18 | 91 | 1007.8 |
| 20260507211102 | 11 | 142 | 0.0 | 3.2 | 0.00 | 0.18 | 0.18 | 91 | 1007.6 |
| 20260507210402 | 11 | 146 | 0.0 | 3.2 | 0.10 | 0.18 | 0.18 | 90 | 1007.7 |
| 20260507205702 | 11 | 173 | 1.6 | 3.2 | 0.13 | 0.18 | 0.18 | 90 | 1007.6 |
| 20260507205002 | 11 | 270 | 0.0 | 3.2 | 0.13 | 0.18 | 0.18 | 90 | 1007.4 |
| 20260507204302 | 11 | 277 | 0.0 | 4.8 | 0.13 | 0.18 | 0.18 | 90 | 1007.4 |
| 20260507203602 | 11 | 303 | 0.0 | 4.8 | 0.13 | 0.18 | 0.18 | 90 | 1007.3 |
| 20260507202902 | 11 | 259 | 1.6 | 6.4 | 0.13 | 0.18 | 0.18 | 88 | 1007.3 |
| 20260507202202 | 11 | 237 | 1.6 | 6.4 | 0.13 | 0.18 | 0.18 | 86 | 1007.2 |
| 20260507201502 | 11 | 244 | 0.0 | 11.3 | 0.13 | 0.18 | 0.18 | 84 | 1007.2 |
| 20260507200802 | 12 | 226 | 3.2 | 11.3 | 0.10 | 0.15 | 0.15 | 81 | 1006.9 |
| 20260507200103 | 12 | 211 | 3.2 | 6.4 | 0.03 | 0.10 | 0.10 | 75 | 1007.0 |
| 20260507195403 | 12 | 191 | 3.2 | 12.9 | 0.00 | 0.05 | 0.05 | 74 | 1006.7 |
| 20260507194702 | 12 | 207 | 6.4 | 12.9 | 0.00 | 0.05 | 0.05 | 73 | 1006.6 |
| 20260507194002 | 12 | 241 | 1.6 | 6.4 | 0.00 | 0.05 | 0.05 | 73 | 1006.3 |
| 20260507193302 | 12 | 211 | 3.2 | 9.7 | 0.00 | 0.05 | 0.05 | 73 | 1006.1 |
| 20260507192602 | 12 | 191 | 4.8 | 12.9 | 0.00 | 0.05 | 0.05 | 70 | 1006.1 |
| 20260507191902 | 13 | 191 | 6.4 | 11.3 | 0.00 | 0.05 | 0.05 | 67 | 1005.9 |
| 20260507191202 | 13 | 203 | 3.2 | 8.0 | 0.00 | 0.05 | 0.05 | 63 | 1006.0 |
| 20260507190502 | 15 | 234 | 1.6 | 6.4 | 0.00 | 0.05 | 0.05 | 55 | 1005.7 |
| 20260507185802 | 15 | 278 | 1.6 | 4.8 | 0.00 | 0.05 | 0.05 | 55 | 1005.8 |
| 20260507185102 | 15 | 32 | 3.2 | 4.8 | 0.00 | 0.05 | 0.05 | 53 | 1005.6 |
| 20260507184402 | 15 | 87 | 0.0 | 6.4 | 0.00 | 0.05 | 0.05 | 51 | 1005.3 |
| 20260507183703 | 15 | 69 | 1.6 | 4.8 | 0.00 | 0.05 | 0.05 | 51 | 1005.1 |
| 20260507182302 | 16 | 107 | 3.2 | 12.9 | 0.00 | 0.05 | 0.05 | 48 | 1005.1 |
| 20260507180902 | 16 | 95 | 8.0 | 12.9 | 0.00 | 0.05 | 0.05 | 47 | 1005.1 |
| 20260507180203 | 16 | 133 | 6.4 | 14.5 | 0.00 | 0.05 | 0.05 | 48 | 1005.0 |
| 20260507175502 | 16 | 135 | 4.8 | 12.9 | 0.00 | 0.05 | 0.05 | 45 | 1004.8 |
| 20260507174802 | 17 | 124 | 6.4 | 14.5 | 0.00 | 0.05 | 0.05 | 40 | 1004.7 |
| 20260507174102 | 17 | 114 | 6.4 | 16.1 | 0.00 | 0.05 | 0.05 | 39 | 1004.7 |
| 20260507173402 | 17 | 134 | 6.4 | 17.7 | 0.00 | 0.05 | 0.05 | 45 | 1004.5 |
| 20260507172702 | 16 | 145 | 11.3 | 17.7 | 0.00 | 0.05 | 0.05 | 48 | 1004.8 |
| 20260507171302 | 17 | 120 | 6.4 | 16.1 | 0.00 | 0.05 | 0.05 | 47 | 1004.7 |
| 20260507165902 | 17 | 118 | 8.0 | 17.7 | 0.00 | 0.05 | 0.05 | 43 | 1004.7 |
| 20260507163801 | 17 | 131 | 8.0 | 20.9 | 0.00 | 0.05 | 0.05 | 46 | 1004.9 |
| 20260507161702 | 17 | 137 | 12.9 | 17.7 | 0.00 | 0.05 | 0.05 | 46 | 1005.1 |
| 20260507161002 | 17 | 156 | 6.4 | 17.7 | 0.00 | 0.05 | 0.05 | 49 | 1005.1 |
| 20260507155603 | 17 | 50 | 3.2 | 9.7 | 0.00 | 0.05 | 0.05 | 50 | 1005.1 |
| 20260507154901 | 17 | 72 | 3.2 | 9.7 | 0.00 | 0.05 | 0.05 | 53 | 1005.3 |
| 20260507154203 | 16 | 49 | 3.2 | 11.3 | 0.00 | 0.05 | 0.05 | 57 | 1005.4 |
| 20260507153502 | 16 | 72 | 6.4 | 17.7 | 0.00 | 0.05 | 0.05 | 58 | 1005.5 |
| 20260507152801 | 16 | 67 | 6.4 | 17.7 | 0.03 | 0.05 | 0.05 | 59 | 1005.7 |
| 20260507152102 | 15 | 55 | 6.4 | 11.3 | 0.03 | 0.05 | 0.05 | 68 | 1005.8 |
| 20260507150701 | 13 | 33 | 3.2 | 16.1 | 0.03 | 0.05 | 0.05 | 67 | 1006.1 |
| 20260507150001 | 13 | 345 | 4.8 | 16.1 | 0.03 | 0.05 | 0.05 | 65 | 1006.0 |
| 20260507145301 | 13 | 342 | 6.4 | 11.3 | 0.03 | 0.05 | 0.05 | 65 | 1006.0 |
| 20260507143901 | 13 | 28 | 3.2 | 9.7 | 0.03 | 0.05 | 0.05 | 65 | 1006.2 |
| 20260507143202 | 13 | 353 | 3.2 | 12.9 | 0.03 | 0.05 | 0.05 | 60 | 1005.9 |
| 20260507142501 | 14 | 88 | 0.0 | 14.5 | 0.00 | 0.03 | 0.03 | 55 | 1006.0 |
| 20260507141801 | 15 | 57 | 4.8 | 24.1 | 0.00 | 0.03 | 0.03 | 53 | 1005.7 |
| 20260507141101 | 14 | 33 | 8.0 | 20.9 | 0.00 | 0.03 | 0.03 | 54 | 1005.7 |
| 20260507140403 | 15 | 59 | 8.0 | 20.9 | 0.00 | 0.03 | 0.03 | 50 | 1005.6 |
| 20260507135701 | 15 | 90 | 4.8 | 20.9 | 0.00 | 0.03 | 0.03 | 46 | 1005.5 |
| 20260507135003 | 16 | 96 | 11.3 | 22.5 | 0.00 | 0.03 | 0.03 | 42 | 1005.3 |
| 20260507134301 | 16 | 86 | 8.0 | 22.5 | 0.00 | 0.03 | 0.03 | 40 | 1005.3 |
| 20260507133601 | 16 | 57 | 3.2 | 9.7 | 0.00 | 0.03 | 0.03 | 50 | 1005.3 |
| 20260507132901 | 16 | 38 | 3.2 | 16.1 | 0.00 | 0.03 | 0.03 | 47 | 1005.2 |
| 20260507132201 | 17 | 43 | 6.4 | 14.5 | 0.00 | 0.03 | 0.03 | 45 | 1005.2 |
| 20260507131501 | 17 | 43 | 6.4 | 12.9 | 0.00 | 0.03 | 0.03 | 41 | 1005.1 |
| 20260507125401 | 15 | 65 | 6.4 | 9.7 | 0.00 | 0.03 | 0.03 | 55 | 1005.4 |
| 20260507124701 | 15 | 90 | 3.2 | 12.9 | 0.00 | 0.03 | 0.03 | 54 | 1005.6 |
| 20260507122601 | 17 | 47 | 6.4 | 17.7 | 0.03 | 0.03 | 0.03 | 38 | 1005.9 |
| 20260507121201 | 18 | 48 | 3.2 | 6.4 | 0.03 | 0.03 | 0.03 | 40 | 1005.9 |
| 20260507120501 | 16 | 14 | 3.2 | 4.8 | 0.03 | 0.03 | 0.03 | 48 | 1005.9 |
| 20260507115801 | 16 | 350 | 0.0 | 14.5 | 0.03 | 0.03 | 0.03 | 50 | 1005.9 |
| 20260507115101 | 16 | 13 | 6.4 | 14.5 | 0.03 | 0.03 | 0.03 | 46 | 1006.0 |
| 20260507113701 | 16 | 48 | 1.6 | 4.8 | 0.03 | 0.03 | 0.03 | 50 | 1006.3 |
| 20260507113001 | 15 | 45 | 0.0 | 9.7 | 0.00 | 0.00 | 0.00 | 47 | 1006.3 |
| 20260507112301 | 16 | 34 | 3.2 | 9.7 | 0.00 | 0.00 | 0.00 | 45 | 1006.3 |
| 20260507110201 | 17 | 67 | 3.2 | 14.5 | 0.00 | 0.00 | 0.00 | 38 | 1006.2 |
| 20260507105501 | 17 | 51 | 8.0 | 14.5 | 0.00 | 0.00 | 0.00 | 35 | 1006.2 |
| 20260507104801 | 17 | 78 | 6.4 | 12.9 | 0.00 | 0.00 | 0.00 | 36 | 1006.3 |
| 20260507103401 | 17 | 70 | 4.8 | 12.9 | 0.00 | 0.00 | 0.00 | 39 | 1006.5 |
| 20260507102701 | 18 | 77 | 4.8 | 19.3 | 0.00 | 0.00 | 0.00 | 35 | 1006.6 |
| 20260507102001 | 18 | 79 | 11.3 | 14.5 | 0.00 | 0.00 | 0.00 | 38 | 1006.6 |
| 20260507101301 | 18 | 54 | 4.8 | 14.5 | 0.00 | 0.00 | 0.00 | 41 | 1006.5 |